This demonstration page uses our WeatherBlox Daily Observations layout. Learn more.

Left ArrowRight Arrow

41.55636, -103.73856

Hourly Observations for October 14, 2015

Temp ( °F °C ) Dew Point ( °F °C ) Humidity (%) Winds ( mph kmh ) Pressure ( in mb ) Visibility ( mi km ) Precip ( " mm )
12:53 am 00:53 Clear 48 8.9 35 1.7 61 61 E 13 20 29.98 1015 10 16.0934 0 0
1:53 am 01:53 Clear 45 7.2 35 1.7 68 68 E 8 13 29.98 1015 10 16.0934 0 0
2:53 am 02:53 Clear 43 6.1 35 1.7 74 74 E 8 13 29.98 1015 10 16.0934 0 0
3:53 am 03:53 Clear 40 4.4 34 1.1 79 79 WNW 3 6 29.99 1016 10 16.0934 0 0
4:53 am 04:53 Clear 41 5 35 1.7 79 79 NNW 8 13 30 1016 10 16.0934 0 0
5:53 am 05:53 Clear 39 3.9 34 1.1 82 82 NNW 9 15 30.05 1018 10 16.0934 0 0
6:53 am 06:53 Clear 40 4.4 34 1.1 79 79 NNW 9 15 30.09 1019 10 16.0934 0 0
7:53 am 07:53 Sunny 41 5 34 1.1 76 76 N 8 13 30.1 1019 10 16.0934 0 0
8:53 am 08:53 Sunny 52 11.1 38 3.3 59 59 WNW 7 11 30.1 1019 10 16.0934 0 0
9:53 am 09:53 Sunny 61 16.1 37 2.8 41 41 WNW 13 20 30.09 1019 10 16.0934 0 0
10:53 am 10:53 Sunny 68 20 35 1.7 30 30 NW 13 20 30.06 1018 10 16.0934 0 0
11:53 am 11:53 Sunny 73 22.8 36 2.2 26 26 WNW 12 19 30.05 1018 10 16.0934 0 0
12:53 pm 12:53 Sunny 79 26.1 31 -0.6 17 17 NW 16 26 30.01 1016 10 16.0934 0 0
1:53 pm 13:53 Sunny 80 26.7 30 -1.1 16 16 NW 12 19 29.99 1016 10 16.0934 0 0
2:53 pm 14:53 Sunny 81 27.2 30 -1.1 16 16 NW 10 17 29.97 1015 10 16.0934 0 0
3:53 pm 15:53 Sunny 79 26.1 34 1.1 20 20 NE 14 22 29.98 1015 10 16.0934 0 0
4:02 pm 16:02 Sunny 79 26 34 1 20 20 NE 12 19 29.8 1009 10 16.0934 0 0
4:53 pm 16:53 Sunny 76 24.4 35 1.7 23 23 E 14 22 29.99 1016 10 16.0934 0 0
5:53 pm 17:53 Sunny 69 20.6 37 2.8 31 31 ENE 8 13 30.03 1017 10 16.0934 0 0
6:53 pm 18:53 Clear 58 14.4 38 3.3 48 48 ENE 8 13 30.07 1018 10 16.0934 0 0
7:53 pm 19:53 Clear 56 13.3 37 2.8 49 49 ENE 8 13 30.09 1019 10 16.0934 0 0
8:53 pm 20:53 Clear 53 11.7 38 3.3 57 57 VRB 5 7 30.09 1019 10 16.0934 0 0
9:53 pm 21:53 Clear 50 10 37 2.8 61 61 E 3 6 30.08 1019 10 16.0934 0 0
10:53 pm 22:53 Clear 48 8.9 37 2.8 66 66 NE 9 15 30.08 1019 10 16.0934 0 0
11:53 pm 23:53 Clear 47 8.3 38 3.3 71 71 ENE 7 11 30.07 1018 10 16.0934 0 0

Powered by AerisWeather